KC8VEU Weather Reports


Display with metric or nautical units.
time (UTC)temp
F
wind
direction
speed
MPH
gust
MPH
rain 1hr
in
rain 24hr
in
rain mn
in
humidity
%
barometer
mb
20260906182517 79 0.0 1.0 0.00 0.00 0.00 67 1011.6
20260906181517 79 0.0 2.0 0.00 0.00 0.00 66 1011.6
20260906180537 79 0.0 2.0 0.00 0.00 0.00 66 1011.7
20260906175517 78 0.0 1.0 0.00 0.00 0.00 67 1011.7
20260906174517 78 135 1.0 3.0 0.00 0.00 0.00 68 1011.7
20260906173517 78 0.0 3.0 0.00 0.00 0.00 68 1011.8
20260906172517 78 0.0 1.0 0.00 0.00 0.00 68 1011.7
20260906171517 77 0.0 1.0 0.00 0.00 0.00 69 1011.7
20260906170517 77 0.0 1.0 0.00 0.00 0.00 71 1011.7
20260906165517 76 0.0 2.0 0.00 0.00 0.00 70 1011.8
20260906164517 76 135 1.0 5.0 0.00 0.00 0.00 71 1011.8
20260906163517 76 0.0 1.0 0.00 0.00 0.00 71 1011.8
20260906162517 75 158 2.0 5.0 0.00 0.00 0.00 72 1011.8
20260906161537 75 0.0 1.0 0.00 0.00 0.00 72 1011.8
20260906160537 75 158 1.0 4.0 0.00 0.00 0.00 72 1011.9
20260906155517 74 158 1.0 6.0 0.00 0.00 0.00 72 1011.7
20260906154517 73 158 2.0 4.0 0.00 0.00 0.00 70 1011.7
20260906153517 73 158 1.0 3.0 0.00 0.00 0.00 71 1011.7
20260906152517 72 0.0 3.0 0.00 0.00 0.00 71 1011.7
20260906151517 71 0.0 2.0 0.00 0.00 0.00 74 1011.7
20260906150517 70 135 1.0 4.0 0.00 0.00 0.00 75 1011.8
20260906145517 70 158 2.0 5.0 0.00 0.00 0.00 76 1011.9
20260906144516 69 0.0 2.0 0.00 0.00 0.00 77 1011.8
20260906143517 69 135 1.0 4.0 0.00 0.00 0.00 78 1011.7
20260906142537 68 135 1.0 4.0 0.00 0.00 0.00 77 1011.8
20260906141517 68 135 1.0 4.0 0.00 0.00 0.00 78 1011.9
20260906140517 67 0.0 3.0 0.00 0.00 0.00 80 1012.0
20260906135517 67 135 1.0 4.0 0.00 0.00 0.00 80 1012.0
20260906134517 66 158 1.0 3.0 0.00 0.00 0.00 81 1012.0
20260906133517 65 0.0 2.0 0.00 0.00 0.00 84 1012.0
20260906132537 63 158 1.0 3.0 0.00 0.00 0.00 85 1011.8
20260906131517 62 158 1.0 2.0 0.00 0.00 0.00 87 1011.8
20260906130517 61 0.0 1.0 0.00 0.00 0.00 88 1011.7
20260906125517 61 158 1.0 4.0 0.00 0.00 0.00 89 1011.6
20260906124517 60 135 1.0 4.0 0.00 0.00 0.00 89 1011.5
20260906123517 60 113 1.0 3.0 0.00 0.00 0.00 89 1011.4
20260906122517 59 135 1.0 5.0 0.00 0.00 0.00 90 1011.5
20260906121516 59 158 1.0 3.0 0.00 0.00 0.00 90 1011.4
20260906120517 59 135 2.0 5.0 0.00 0.00 0.00 91 1011.4
20260906115516 58 135 2.0 5.0 0.00 0.00 0.00 92 1011.3
20260906114537 58 158 2.0 6.0 0.00 0.01 0.00 92 1011.2
20260906113517 58 113 1.0 6.0 0.00 0.01 0.00 93 1011.2
20260906112517 58 135 2.0 7.0 0.00 0.01 0.00 93 1011.3
20260906111516 58 135 1.0 5.0 0.00 0.01 0.00 93 1011.3
20260906110517 58 113 2.0 6.0 0.00 0.01 0.00 94 1011.1
20260906105537 58 135 2.0 7.0 0.00 0.01 0.00 94 1011.0
20260906104517 58 158 2.0 6.0 0.00 0.01 0.00 94 1011.0
20260906103516 58 113 1.0 5.0 0.00 0.01 0.00 94 1011.0
20260906102516 58 135 1.0 3.0 0.00 0.01 0.00 93 1011.0
20260906101517 59 113 1.0 6.0 0.00 0.01 0.00 93 1011.0
20260906100516 59 135 2.0 5.0 0.00 0.01 0.00 93 1011.0
20260906095517 59 0.0 4.0 0.00 0.01 0.00 92 1011.1
20260906094519 59 135 2.0 6.0 0.00 0.01 0.00 91 1011.0
20260906093517 59 135 2.0 7.0 0.00 0.01 0.00 91 1011.2
20260906092517 59 135 1.0 6.0 0.00 0.01 0.00 90 1011.1
20260906091537 59 0.0 3.0 0.00 0.01 0.00 90 1011.0
20260906091016 60 135 1.0 4.0 0.00 0.01 0.00 90 1011.0
20260906090017 59 0.0 3.0 0.00 0.01 0.00 89 1011.0
20260906085017 59 113 1.0 3.0 0.00 0.01 0.00 89 1011.2
20260906084017 59 0.0 1.0 0.00 0.01 0.00 89 1011.2
20260906083017 60 0.0 1.0 0.00 0.01 0.00 89 1011.1
20260906082057 60 0.0 1.0 0.00 0.01 0.00 90 1011.0
20260906081017 59 0.0 4.0 0.00 0.01 0.00 92 1010.9
20260906080037 59 0.0 1.0 0.00 0.01 0.00 93 1011.0
20260906075016 58 0.0 1.0 0.00 0.01 0.00 93 1010.9
20260906074016 57 0.0 0.0 0.00 0.01 0.00 92 1011.0
20260906073017 57 0.0 0.0 0.00 0.01 0.00 91 1011.0
20260906072016 58 0.0 0.0 0.00 0.01 0.00 91 1011.1
20260906071036 58 0.0 0.0 0.00 0.01 0.00 91 1011.1
20260906070037 58 0.0 0.0 0.00 0.01 0.00 90 1011.1
20260906065017 59 0.0 0.0 0.00 0.01 0.00 88 1011.1
20260906064036 60 0.0 0.0 0.00 0.01 0.00 87 1011.2
20260906063016 61 0.0 0.0 0.00 0.01 0.00 86 1011.0
20260906062057 62 0.0 1.0 0.00 0.01 0.00 85 1011.0
20260906061017 62 135 1.0 3.0 0.00 0.01 0.00 84 1010.8
20260906060017 62 135 2.0 5.0 0.00 0.01 0.00 84 1010.7
20260906055037 62 158 1.0 5.0 0.00 0.01 0.00 84 1010.6
20260906054016 62 135 2.0 5.0 0.00 0.01 0.00 83 1010.5
20260906053016 62 135 1.0 3.0 0.00 0.01 0.00 83 1010.4
20260906052016 62 135 1.0 2.0 0.00 0.01 0.00 84 1010.5
20260906051016 62 135 1.0 3.0 0.00 0.01 0.00 85 1010.5
20260906050016 62 135 2.0 4.0 0.00 0.01 0.00 85 1010.4
20260906045016 62 158 2.0 6.0 0.00 0.01 0.00 86 1010.3
20260906044016 62 158 3.0 5.0 0.00 0.01 0.00 87 1010.2
20260906043016 62 135 1.0 4.0 0.00 0.01 0.00 88 1010.2
20260906042016 62 158 2.0 6.0 0.00 0.01 0.00 90 1010.3
20260906041016 62 135 2.0 4.0 0.00 0.01 0.00 91 1010.4
20260906040016 62 135 1.0 6.0 0.00 0.01 0.01 91 1010.3
20260906035037 62 158 1.0 5.0 0.00 0.01 0.01 91 1010.2
20260906034017 62 158 2.0 6.0 0.00 0.01 0.01 91 1010.2
20260906033017 62 158 2.0 5.0 0.00 0.01 0.01 91 1010.1
20260906032017 62 135 1.0 4.0 0.00 0.01 0.01 91 1010.1
20260906031017 62 135 1.0 5.0 0.00 0.01 0.01 91 1010.0
20260906030037 62 135 2.0 5.0 0.00 0.01 0.01 91 1010.0
20260906025517 62 135 2.0 7.0 0.00 0.01 0.01 90 1009.9
20260906024638 62 135 1.0 3.0 0.00 0.01 0.01 90 1009.8
20260906023537 62 135 1.0 4.0 0.00 0.01 0.01 89 1009.8
20260906022517 62 135 1.0 3.0 0.00 0.01 0.01 88 1009.8
20260906021537 62 135 1.0 5.0 0.00 0.01 0.01 87 1009.6
20260906020517 63 0.0 7.0 0.00 0.01 0.01 85 1009.7
20260906015517 63 0.0 3.0 0.00 0.01 0.01 84 1009.8
20260906014537 63 0.0 3.0 0.00 0.01 0.01 83 1009.7
20260906013517 64 0.0 4.0 0.00 0.01 0.01 82 1009.6
20260906012517 64 135 1.0 5.0 0.00 0.01 0.01 81 1009.5
20260906011517 64 135 1.0 3.0 0.00 0.01 0.01 81 1009.4
20260906010517 65 0.0 4.0 0.00 0.01 0.01 79 1009.3
20260906005517 65 0.0 3.0 0.00 0.01 0.01 78 1009.2
20260906004517 66 0.0 1.0 0.00 0.01 0.01 77 1009.3
20260906003517 67 0.0 1.0 0.00 0.01 0.01 76 1009.3
20260906002537 67 0.0 1.0 0.00 0.01 0.01 75 1009.4
20260906001517 68 0.0 1.0 0.00 0.01 0.01 73 1009.3
20260906000557 69 0.0 0.0 0.00 0.01 0.01 70 1009.4
20260905235537 71 0.0 3.0 0.00 0.01 0.01 67 1009.5
20260905234517 72 0.0 1.0 0.00 0.01 0.01 65 1009.5
20260905233517 73 0.0 1.0 0.00 0.01 0.01 64 1009.5
20260905232517 74 0.0 0.0 0.00 0.01 0.01 62 1009.6
20260905231517 74 0.0 1.0 0.00 0.01 0.01 62 1009.6
20260905230517 74 0.0 1.0 0.00 0.01 0.01 64 1009.5
20260905225517 74 0.0 0.0 0.00 0.01 0.01 69 1009.6
20260905224537 74 0.0 1.0 0.00 0.01 0.01 68 1009.7
20260905223517 74 0.0 0.0 0.00 0.01 0.01 68 1009.7
20260905222517 75 0.0 0.0 0.00 0.01 0.01 68 1009.9
20260905221517 75 0.0 1.0 0.00 0.01 0.01 67 1009.7
20260905220517 75 0.0 0.0 0.00 0.01 0.01 66 1009.4
20260905215517 75 0.0 0.0 0.00 0.01 0.01 66 1009.6
20260905214517 76 0.0 0.0 0.00 0.01 0.01 65 1009.6
20260905213537 76 0.0 0.0 0.00 0.01 0.01 64 1009.7
20260905212517 76 0.0 1.0 0.00 0.01 0.01 62 1009.6
20260905211517 77 0.0 1.0 0.00 0.01 0.01 62 1009.6
20260905210517 77 0.0 3.0 0.00 0.01 0.01 59 1009.7
20260905205517 78 0.0 1.0 0.00 0.01 0.01 58 1009.9
20260905204518 77 0.0 2.0 0.00 0.01 0.01 55 1010.0
20260905203517 77 0.0 4.0 0.00 0.01 0.01 54 1010.0
20260905202517 77 0.0 3.0 0.00 0.01 0.01 55 1010.1
20260905201537 77 0.0 4.0 0.00 0.01 0.01 55 1010.1
20260905200517 77 135 1.0 4.0 0.00 0.01 0.01 55 1010.2
20260905195517 77 0.0 5.0 0.00 0.01 0.01 53 1009.9
20260905194517 77 0.0 3.0 0.00 0.01 0.01 54 1009.9
20260905193517 76 135 2.0 8.0 0.00 0.01 0.01 54 1009.7
20260905192517 77 158 1.0 7.0 0.00 0.01 0.01 57 1009.9
20260905191517 76 158 1.0 5.0 0.00 0.01 0.01 55 1010.2
20260905190517 76 0.0 2.0 0.00 0.01 0.01 60 1010.3
20260905185537 75 135 2.0 5.0 0.00 0.01 0.01 60 1010.2
20260905184537 75 158 3.0 7.0 0.00 0.01 0.01 59 1010.2
20260905183517 75 135 1.0 4.0 0.00 0.01 0.01 61 1010.3